Location: Ch�teau-Arnoux
(44.0814°N, 6.0027°E)
Time: 05:15:33
(UTC+00:00)

Daily predictions for brighter satellites

Satellite Brightness Start Highest point End
(mag) Time Altitude Azimuth Time Altitude Azimuth Time Altitude Azimuth
Lacrosse 5 3.9 03:05:53 24° ENE 03:05:53 24° ENE 03:08:09 10° ENE
Cosmos 2082 Rocket 3.5 03:10:03 37° E 03:10:03 37° E 03:14:56 10° NE
CZ-2C R/B 4.5 03:07:13 10° NE 03:11:08 24° E 03:12:42 20° ESE
Cosmos 1833 Rocket 3.6 03:30:39 42° NE 03:30:39 42° NE 03:34:21 10° NNE
SL-16 R/B 4.4 03:37:21 10° N 03:41:30 20° NE 03:45:39 10° E
USA 234 4.4 03:41:24 10° NE 03:46:48 29° N 03:47:41 28° NNW
Cosmos 1934 Rocket 3.9 03:47:43 75° NNW 03:47:43 75° NNW 03:53:36 10° N
Cosmos 1980 Rocket 2.6 03:48:16 45° N 03:49:47 61° ENE 03:55:24 10° SE
Cosmos 2322 Rocket 4.4 03:47:55 10° N 03:52:08 21° NE 03:56:19 10° E
PAYLOAD A 4.1 03:50:07 10° NNE 03:55:28 79° ESE 03:57:24 41° S
Cosmos 2058 4.4 03:53:52 10° SSE 03:57:45 37° E 04:01:39 10° NNE
Cosmos 2112 Rocket 4.3 04:00:25 35° N 04:02:34 64° ENE 04:07:51 10° SSE
Cosmos 967 Rocket 4.5 04:00:45 39° SSW 04:03:16 81° ESE 04:09:42 10° NE
Cosmos 1076 Rocket 3.9 04:03:18 34° SSE 04:05:02 62° E 04:09:21 10° NNE
CZ-4B R/B 4.4 04:01:47 10° NNE 04:03:39 27° NE 04:03:39 27° NE
Cosmos 2369 4.3 04:11:03 40° SSW 04:11:03 40° SSW 04:15:04 10° S
Cosmos 1680 Rocket 3.4 04:08:35 49° NNW 04:10:04 86° ENE 04:15:23 10° SSE
SL-4 R/B 3.4 04:11:24 34° N 04:11:37 34° N 04:16:02 10° ENE
CZ-4C R/B 4.0 04:12:40 18° NNW 04:12:40 18° NNW 04:16:37 10° NNE
Cosmos 1356 Rocket 3.9 04:11:52 35° N 04:13:32 63° ENE 04:17:48 10° SSE
Gbstr 26 Del rocket 3.0 04:17:11 63° ESE 04:17:11 63° ESE 04:20:41 10° ENE
Cosmos 2123 Rocket 4.2 04:20:13 45° WSW 04:20:13 45° WSW 04:25:17 10° SSW
Meteor 1-31 Rocket 3.4 04:15:49 10° NNE 04:18:34 45° NNE 04:18:34 45° NNE
Meteor 2-2 Rocket 4.1 04:14:57 10° NNW 04:20:36 80° W 04:26:13 10° S
Cosmos 1153 Rocket 4.5 04:14:39 10° S 04:20:46 79° E 04:26:55 10° N
Cosmos 158 Rocket 4.3 04:17:54 19° N 04:21:23 59° ENE 04:26:11 10° SSE
Cosmos 2360 4.1 04:20:23 50° WNW 04:21:43 65° WSW 04:27:21 10° S
SL-27 R/B 3.2 04:23:14 44° NE 04:23:14 44° NE 04:25:45 10° NNE
Meteor 1-27 4.3 04:20:40 37° NW 04:22:48 57° W 04:28:30 10° S
Meteor 2-20 4.5 04:17:35 10° N 04:23:47 81° E 04:29:58 10° S
Cosmos 1484 Rocket 3.8 04:22:37 10° NNE 04:26:31 48° E 04:30:23 10° S
BREEZE-M DEB (TANK) 4.2 04:18:37 28° WNW 04:26:49 76° NNE 04:31:22 10° ESE
Cosmos 990 Rocket 4.1 04:22:18 10° SSW 04:27:26 73° ESE 04:32:38 10° NNE
Cosmos 1869 3.1 04:28:33 59° N 04:29:16 89° W 04:33:11 10° S
Cosmos 2278 3.9 04:28:58 46° W 04:29:31 47° WSW 04:34:57 10° S
Cosmos 1697 Rocket 3.4 04:30:39 34° SW 04:30:39 34° SW 04:34:44 10° S
Cosmos 1892 3.8 04:27:49 10° SSE 04:31:26 44° E 04:35:03 10° NNE
Cosmos 1605 Rocket 4.0 04:26:32 10° SSW 04:32:36 56° WNW 04:38:39 10° N
NOSS 3-3 (A) 3.9 04:28:32 13° SSW 04:33:49 82° SE 04:40:24 10° NE
NOSS 3-3 (C) 4.0 04:28:36 13° SSW 04:33:55 81° SE 04:40:31 10° NE
Cosmos 923 Rocket 4.2 04:34:15 44° W 04:34:24 44° WSW 04:39:20 10° S
COSMOS 2455 3.5 04:31:30 13° NNW 04:36:50 52° NE 04:42:41 10° SE
Cosmos 839 Rocket 4.2 04:36:33 23° SW 04:41:02 58° NW 04:47:14 10° NNE
COSMO-SKYMED 1 2.8 04:36:46 10° SSE 04:41:05 71° ENE 04:45:25 10° N
MSX 4.3 04:36:01 10° N 04:41:14 37° WNW 04:42:18 34° W
STARLINK-80 3.5 04:41:06 40° SW 04:42:20 71° SE 04:46:10 10° ENE
deb Kosmos-1763 4.0 04:44:29 51° WSW 04:45:09 63° WNW 04:48:52 10° NNE
SJ 16-02 1.2 04:41:10 10° SSW 04:45:33 80° WNW 04:49:57 10° NNE
Lacrosse 5 2.3 04:45:07 37° WNW 04:46:21 44° NNW 04:51:13 10° NE
ATLAS CENTAUR R/B 4.0 04:43:57 10° S 04:48:03 27° ESE 04:52:05 10° ENE
CZ-2C R/B 2.7 04:44:57 10° N 04:49:31 40° WNW 04:52:02 22° SW
Cosmos 2151 3.3 04:45:34 10° S 04:49:50 69° E 04:54:08 10° NNE
ASTEX 1 3.6 04:47:00 10° SSW 04:51:42 45° W 04:56:30 10° NNW
In-Cosmos 22 Rocket 4.0 04:47:48 10° S 04:53:09 86° W 04:58:39 10° N
CZ-4B DEB 4.5 04:47:41 10° NNE 04:53:10 71° ESE 04:58:38 10° S
Shenzhou-11 Module 1.7 04:53:16 66° S 04:53:18 66° S 04:56:00 10° E
Cosmos 2082 Rocket 2.8 04:51:59 29° W 04:53:48 36° NW 04:59:03 10° N
Cosmos 1898 Rocket 3.5 04:50:48 10° SSW 04:55:57 62° WNW 05:01:12 10° NNE
Cosmos 1825 4.1 04:53:14 10° SSE 04:56:35 31° E 04:59:56 10° NNE
H-2A R/B 4.0 04:53:30 10° N 04:55:53 22° NW 04:55:53 22° NW
PSLV R/B 3.7 04:56:29 10° N 05:00:17 62° WNW 05:04:10 10° SSW
STARLINK-48 3.5 04:57:57 21° SW 05:00:27 78° SE 05:04:20 10° ENE
Okean O Rocket 2.2 04:59:26 10° NNE 05:03:44 59° E 05:08:01 10° S
ATLAS 2AS CENTAUR R/B 3.2 04:58:20 10° NW 05:06:02 69° NE 05:13:05 10° SE
Cosmos 1937 Rocket 3.4 05:03:17 10° SSW 05:08:24 65° WNW 05:13:32 10° NNE
Cosmos 1833 Rocket 4.0 05:12:24 19° WNW 05:13:19 19° NW 05:17:19 10° N
Cosmos 1459 Rocket 3.9 05:12:09 10° SSW 05:18:16 66° W 05:24:31 10° N
USA 116 3.1 05:16:17 10° S 05:19:25 65° WSW 05:22:48 10° NNW
Cosmos 1725 Rocket 4.3 05:13:22 10° S 05:19:34 72° E 05:25:51 10° NNE
STARLINK-43 3.8 05:18:10 22° W 05:20:09 42° NNW 05:23:43 10° NE
Helios 1A Rocket 2.9 05:16:16 10° NNE 05:20:24 87° WNW 05:24:29 10° SSW
NOAA 6 4.1 05:15:39 10° NNE 05:20:49 81° ESE 05:25:56 10° SSW
Cosmos 2016 Rocket 4.0 05:17:13 10° S 05:23:27 86° W 05:29:49 10° N
Lacrosse 5 rocket 3.4 05:22:04 10° NNW 05:23:50 13° NNE 05:25:37 10° NE
SL-16 R/B 2.2 05:20:34 10° NNW 05:26:16 76° WSW 05:31:54 10° SSE
Cosmos 2360 Rocket 3.1 05:22:19 10° NNW 05:27:52 51° ENE 05:33:22 10° SE
USA 234 4.3 05:22:52 10° E 05:28:43 37° NNE 05:34:35 10° NW
ALOS 2.2 05:24:13 10° N 05:28:51 64° WNW 05:33:27 10° SSW
SKYMED 2 4.2 05:25:19 10° SSW 05:29:18 35° W 05:33:18 10° NNW
Cosmos 1980 Rocket 3.4 05:30:07 13° WNW 05:33:16 21° W 05:37:22 10° SSW
Cosmos 2058 4.3 05:31:46 10° WSW 05:34:48 19° WNW 05:37:51 10° NNW
Tsikada Rocket 4.2 05:29:22 10° N 05:35:50 84° E 05:42:10 10° S
Cosmos 1515 Rocket 3.6 05:31:34 10° N 05:35:56 86° E 05:40:16 10° S
SMAP 4.4 05:32:14 10° NNE 05:36:43 44° E 05:41:09 10° S
Cosmos 2322 Rocket 2.2 05:31:07 10° NNW 05:36:46 74° WSW 05:42:25 10° SSE
Cosmos 1328 Rocket 3.6 05:32:51 10° NNW 05:37:06 56° W 05:41:18 10° S
STARLINK-25 4.5 05:34:50 10° SW 05:38:52 52° SE 05:42:55 10° ENE
Cosmos 1743 Rocket 3.8 05:35:19 10° S 05:39:38 72° E 05:43:57 10° NNE
CZ-4B R/B 4.5 05:38:31 10° NW 05:39:45 12° WNW 05:39:45 12° WNW
Cosmos 2100 Rocket 4.3 05:34:34 10° SW 05:40:23 41° WNW 05:46:12 10° N
STARLINK-71 4.2 05:36:38 10° SW 05:40:42 59° SE 05:44:46 10° ENE
Cosmos 1151 Rocket 3.1 05:37:17 10° NNW 05:41:35 54° W 05:45:49 10° S
STARLINK-79 4.4 05:38:06 10° SW 05:42:09 56° SE 05:46:12 10° ENE
STARLINK-78 4.3 05:39:43 10° SW 05:43:46 58° SE 05:47:51 10° ENE
STARLINK-49 4.2 05:43:03 10° SW 05:47:08 61° SE 05:51:14 10° ENE
SL-08 R/B 4.4 05:41:53 10° SSW 05:47:58 66° W 05:54:03 10° N
STARLINK-27 4.1 05:44:40 10° SW 05:48:45 63° SE 05:52:51 10° ENE
STARLINK-74 4.1 05:46:21 10° SW 05:50:26 65° SE 05:54:34 10° ENE
Cosmos 2298 Rocket 4.1 05:46:01 10° SSW 05:51:16 62° WNW 05:56:33 10° NNE
ADEOS Rocket 4.2 05:44:14 10° SSE 05:51:52 62° ENE 05:59:13 10° N
SL-4 R/B 2.7 05:47:11 10° NW 05:52:01 63° NNE 05:56:45 10° ESE
STARLINK-39 4.0 05:48:00 10° SW 05:52:06 67° SE 05:56:14 10° ENE
STARLINK 4.0 05:49:37 10° SW 05:53:44 69° SE 05:57:53 10° ENE
Cosmos 1802 Rocket 4.4 05:47:44 10° SSW 05:53:49 44° WNW 05:59:57 10° N
STARLINK-42 3.9 05:50:26 10° SW 05:54:33 73° SE 05:58:42 10° ENE
STARLINK-21 3.9 05:51:13 10° SW 05:55:20 72° SE 05:59:29 10° ENE
Cosmos 372 Rocket 4.0 05:53:28 10° SSW 05:58:34 60° WNW 06:03:40 10° NNE
Cosmos 1408 Rocket 4.1 05:54:53 10° SW 05:58:50 35° WNW 06:02:51 10° N
STARLINK-45 3.7 05:54:49 10° SW 05:58:58 83° SE 06:03:07 10° ENE
Cosmos 2322 4.5 05:54:30 10° NNW 06:00:06 54° ENE 06:05:38 10° SE
COSMOS 2487 2.6 05:56:47 10° SW 06:00:08 49° WNW 06:03:32 10° N
